This is the latest recevied weather packets stored in our database for station/object K0WOI. If no packets are shown the sender has not sent any weather packets the latest 1 day(s).
| Time | Temp. | Humidity | Pressure | Rain* | Wind** | Luminosity | Snow |
|---|---|---|---|---|---|---|---|
| 1777975085 | 6.67° C | 82% | 1009.4 hPa | 0 mm | 0 m/s | 0 W/m² | - |
| 1777974783 | 6.67° C | 80% | 1009.3 hPa | 0 mm | 0 m/s | 0 W/m² | - |
| 1777974478 | 6.67° C | 83% | 1009.2 hPa | 0 mm | 0 m/s | 0 W/m² | - |
| 1777974176 | 6.67° C | 86% | 1009.2 hPa | 0 mm | 0 m/s | 0 W/m² | - |
| 1777973871 | 6.67° C | 88% | 1009.2 hPa | 0 mm | 0 m/s | 0 W/m² | - |
| 1777973569 | 6.67° C | 88% | 1009.1 hPa | 0 mm | 0 m/s | 0 W/m² | - |
| 1777973266 | 6.67° C | 88% | 1008.9 hPa | 0 mm | 0 m/s | 0 W/m² | - |
| 1777972964 | 7.22° C | 87% | 1008.6 hPa | 0 mm | 0 m/s | 0 W/m² | - |
| 1777972661 | 7.22° C | 85% | 1008.6 hPa | 0 mm | 0 m/s | 0 W/m² | - |
| 1777972359 | 7.22° C | 82% | 1008.3 hPa | 0 mm | 0 m/s | 0 W/m² | - |
| 1777972057 | 7.22° C | 81% | 1008.4 hPa | 0 mm | 0 m/s | 0 W/m² | - |
| 1777971755 | 7.22° C | 77% | 1008.2 hPa | 0 mm | 0 m/s | 0 W/m² | - |
| 1777971452 | 7.22° C | 81% | 1008 hPa | 0 mm | 0 m/s | 0 W/m² | - |
| 1777971150 | 7.22° C | 81% | 1007.8 hPa | 0 mm | 0 m/s | 0 W/m² | - |
| 1777970847 | 7.22° C | 83% | 1007.9 hPa | 0 mm | 0 m/s | 0 W/m² | - |
| 1777970546 | 6.67° C | 88% | 1007.9 hPa | 0 mm | 0 m/s | 0 W/m² | - |
| 1777970243 | 7.22° C | 91% | 1007.9 hPa | 0 mm | 0 m/s | 0 W/m² | - |
| 1777969939 | 7.22° C | 92% | 1007.4 hPa | 0 mm | 0 m/s | 0 W/m² | - |
| 1777969635 | 7.78° C | 92% | 1007.1 hPa | 0 mm | 0 m/s | 0 W/m² | - |
| 1777969333 | 8.33° C | 90% | 1007.1 hPa | 0 mm | 0.45 m/s, 318° | 0 W/m² | - |
| 1777969028 | 8.33° C | 85% | 1006.9 hPa | 0 mm | 0 m/s | 0 W/m² | - |
| 1777968726 | 8.33° C | 79% | 1007.2 hPa | 0 mm | 0 m/s | 0 W/m² | - |
| 1777968423 | 7.78° C | 78% | 1008 hPa | 0 mm | 0 m/s | 0 W/m² | - |
| 1777968119 | 7.78° C | 83% | 1008.1 hPa | 0 mm | 0.45 m/s, 318° | 0 W/m² | - |
| 1777967814 | 7.78° C | 91% | 1007.1 hPa | 0 mm | 0 m/s | 0 W/m² | - |
* Rain latest hour (hover to see other rain measurements)
** Current wind speed in m/s (hover to see current wind gust speed)